Simultaneous Nadir Overpasses (SNOs) Predictions

Prediction of SNOs between GOES-15 and NOAA-20 Satellite Orbit:

Table of predicted SNOs for the next 14.0 days since TLE Epoch: 9/7/2024
Index Date Time (GOES-15) GOES-15 Lat,Lon NOAA-20 Lat,Lon Distance(km) Time Diff (sec)
1 09/07/2024 09:16:22 -0.38, 61.41 -0.18, 62.26 97.77 80
2 09/09/2024 21:16:40 0.38, 61.44 0.38, 61.54 11.76 80
3 09/12/2024 09:19:46 -0.37, 61.39 -0.53, 60.78 69.57 80
4 09/13/2024 09:03:40 -0.37, 61.38 0.50, 65.32 448.03 80
5 09/14/2024 21:25:25 0.35, 61.43 0.63, 60.05 156.53 80
6 09/15/2024 21:03:58 0.35, 61.43 -0.35, 64.59 360.18 80
7 09/17/2024 09:25:51 -0.34, 61.40 -0.78, 59.29 239.69 80
8 09/18/2024 09:09:44 -0.35, 61.40 0.21, 63.83 277.88 80
9 09/19/2024 21:31:28 0.33, 61.43 0.97, 58.58 325.45 80
10 09/20/2024 21:10:00 0.34, 61.44 -0.03, 63.12 191.07 80
